Regional Weather Roundup
Issued by NWS

Home | Current Version | Previous Version | Text Only | Print | Product List | Glossary On
Versions: 1 2 3 4 5 6 7 8 9 10 11 12 13 14 15 16 17 18 19 20 21 22 23 24 25 26 27 28 29 30 31 32 33 34 35 36 37 38 39 40 41 42 43 44 45 46 47 48 49 50
000
ASUS43 KDTX 261501
RWRMI
MICHIGAN HOURLY REGIONAL WEATHER ROUNDUP
NATIONAL WEATHER SERVICE DETROIT/PONTIAC MI
1000 AM EST MON JAN 26 2015

NOTE: "FAIR" INDICATES FEW OR NO CLOUDS BELOW 12,000 FEET WITH NO
SIGNIFICANT WEATHER AND/OR OBSTRUCTION TO VISIBILITY.

MIZ047>049-052>055-059>063-066>070-074>076-081>083-261600-
SOUTHEAST LOWER MICHIGAN

CITY           SKY/WX    TMP DP  RH WIND       PRES   REMARKS
ADRIAN         SUNNY     14   7  73 NE9       29.95S WCI   2
ALMA           SUNNY     10   8  90 CALM      29.98F
ANN ARBOR      SUNNY     16   8  71 NE9       29.94S WCI   4
BAD AXE        LGT SNOW   5   3  91 CALM      29.98S
CARO           SUNNY     16   9  71 NE5       29.98S WCI   9
DETROIT CITY   SUNNY     18   7  62 NE10      29.96R WCI   6
DETROIT        MOSUNNY   17   8  67 N9        29.96S WCI   6
FLINT          SUNNY     16   8  71 NE9       29.97S WCI   4
GROSSE ILE     SUNNY     16   7  67 N9        29.94R WCI   4
HILLSDALE      SUNNY     13   8  82 NE5       29.90F WCI   5
HOWELL         SUNNY     12   9  88 N3        29.94S

CITY           SKY/WX    TMP DP  RH WIND       PRES   REMARKS
JACKSON        SUNNY     14   8  77 NE6       29.93F WCI   5
LAMBERTVILLE   SUNNY     18   9  68 N7        29.95S WCI   8
LANSING        SUNNY     14  10  84 E7        29.96F WCI   4
LAPEER         FAIR      12   9  89 CALM      29.96S
MASON          SUNNY     13   8  83 NE6       29.95S WCI   4
MONROE         SUNNY     16   9  73 N7        29.93S WCI   6
PONTIAC        MOSUNNY   14   8  77 NE8       29.93S WCI   3
PORT HOPE        N/A     19  12  74 E10       29.97F WCI   7
PORT HURON     SUNNY     18  12  79 N8        29.96S WCI   7
TRI CITIES     SUNNY     14   8  77 N3        29.99S
TROY           SUNNY     18   9  68 NE6       29.97S WCI  10
SAGINAW HB     SUNNY     16  12  86 NE5       29.98F WCI   9
$$
MIZ043>046-050>051-056>058-064>065-071>073-077>080-261600-
SOUTHWEST LOWER MICHIGAN

CITY           SKY/WX    TMP DP  RH WIND       PRES   REMARKS
BATTLE CREEK   MOSUNNY   15   8  73 NE8       29.94F WCI   4
BENTON HARBOR  MOSUNNY   14  11  87 E5        29.96S WCI   6
BIG RAPIDS     MOSUNNY    5   2  88 CALM      29.95S
COLDWATER      MOSUNNY   13  10  86 E6        29.93F WCI   4
FREMONT        FAIR       9   4  83 SE3       29.96F
HOLLAND        MOSUNNY   13   8  81 E5        29.98S WCI   5
GRAND RAPIDS   PTSUNNY   12   8  84 E8        29.96S WCI   0
IONIA          FAIR      14  11  86 E7        29.95F WCI   4
KALAMAZOO      FAIR      14   8  77 VRB5      29.95F WCI   6
LUDINGTON      MOSUNNY   12   6  78 SE3       29.97F
MARSHALL       MOSUNNY   14   9  82 NE5       29.93F WCI   6
MOUNT PLEASANT MOSUNNY   11   8  88 CALM      29.97F
MUSKEGON       PTSUNNY   11   6  81 E5        29.98F WCI   3
SOUTH HAVEN    FAIR      15  11  84 E6        29.96S WCI   6
$$
MIZ016>042-261600-
NORTHERN LOWER MICHIGAN

CITY           SKY/WX    TMP DP  RH WIND       PRES   REMARKS
ALPENA         CLOUDY     4   0  83 CALM      30.01S
BEAVER ISLAND  MOSUNNY   13  11  89 E6        29.97F WCI   4
BELLAIRE       MOSUNNY    2  -2  83 CALM      29.99F
CADILLAC       MOSUNNY    3  -3  75 CALM      29.91F
CHARLEVOIX     MOSUNNY    5   1  85 SE5       30.00F WCI  -4
FRANKFORT      PTSUNNY   13   9  83 CALM      29.97S
GAYLORD        MOSUNNY   -3  -3 100 CALM      29.93S FOG
GRAYLING       MOSUNNY   -4 -10  76 CALM      29.96S
HARBOR SPRINGS MOSUNNY   -2  -6  82 E6        29.98F WCI -14
HOUGHTON LAKE  SUNNY      3   0  87 CALM      29.95S
MANISTEE       MOSUNNY    7   3  85 E3        29.97S
OSCODA         PTSUNNY   19  10  65 E7        29.99S WCI  10
PELLSTON       SUNNY     -5 -10  79 CALM      30.00F
ROGERS CITY    MOSUNNY   15  13  92 CALM      30.01S
TRAVERSE CITY  PTSUNNY    4   0  83 NW3       29.98F
$$
MIZ007>008-015-261600-
EASTERN UPPER MICHIGAN

CITY           SKY/WX    TMP DP  RH WIND       PRES   REMARKS
KINROSS        MOSUNNY    3   0  85 E7        29.99F WCI  -9
MACKINAC ISLAN MOSUNNY   14   7  72 SE5       29.98F WCI   7
NEWBERRY       PTSUNNY    0  -2  89 E3        29.96S
S. S. MARIE    PTSUNNY    2  -3  80 E7        30.01F WCI -11
MUNISING         N/A     12   6  77 S7        29.91F WCI   1
$$
MIZ004>006-011>014-085-261600-
CENTRAL UPPER MICHIGAN

CITY           SKY/WX    TMP DP  RH WIND       PRES   REMARKS
MANISTIQUE     FLURRIES  20  14  75 SE12      29.94S WCI   8
ESCANABA       CLOUDY     9   5  85 CALM      29.91F
MENOMINEE      PTSUNNY   16  12  86 SE5       29.90F WCI   9
SAWYER-GWINN   CLOUDY    10   7  85 S6        29.84F WCI   1
$$
MIZ001>003-009>011-084-261600-
WESTERN UPPER MICHIGAN

CITY           SKY/WX    TMP DP  RH WIND       PRES   REMARKS
IRON MOUNTAIN  CLOUDY    10   5  80 SE7       29.83F WCI  -1
HOUGHTON       CLOUDY    14   6  70 S10       29.76F WCI   1
COPPER HARBOR    N/A     21  10  62 VRB7      29.81F WCI  12
IRONWOOD       CLOUDY    18  12  79 S7        29.67F WCI   8
$$

ABBREVIATIONS USED IN REMARKS
   TC - TEMPERATURE IN CELSIUS
  WCI - WIND CHILL INDEX
   HX - HEAT INDEX
  VSB - VISIBILITY




USA.gov is the U.S. government's official web portal to all federal, state and local government web resources and services.